JEI616 EHAM-EDDP

Flight info

Callsign JEI616
Flight time 0h 50m
Altitude 37000
Route ARNEM L620 HMM DCT NORTA DCT ADMOS T959 KOJEC KOJEC1R
Aircraft LJ35/M-SFGJRW/S

Departure

Time 2026-05-07 18:08
Airport Amsterdam Airport Schiphol (EHAM)

Arrival

Time 2026-05-07 18:58
Airport Leipzig/Halle Airport (EDDP)
Time Latitude Longitude Altitude Speed Heading
2026-05-07 17:29 52.31116 4.80332 -12 ft 0 kts 314°
2026-05-07 17:56 52.31126 4.80333 -12 ft 4 kts 62°
2026-05-07 17:56 52.31120 4.80408 -12 ft 9 kts 78°
2026-05-07 17:57 52.31168 4.80487 -12 ft 12 kts 41°
2026-05-07 17:57 52.31209 4.80544 -12 ft 11 kts 38°
2026-05-07 17:57 52.31248 4.80520 -12 ft 0 kts 274°
2026-05-07 18:00 52.31248 4.80519 -12 ft 0 kts 274°
2026-05-07 18:00 52.31249 4.80484 -12 ft 7 kts 270°
2026-05-07 18:00 52.31223 4.80390 -12 ft 11 kts 221°
2026-05-07 18:01 52.31154 4.80292 -12 ft 15 kts 221°
2026-05-07 18:01 52.31064 4.80163 -12 ft 19 kts 222°
2026-05-07 18:01 52.30955 4.80009 -12 ft 22 kts 221°
2026-05-07 18:01 52.30829 4.79829 -12 ft 26 kts 220°
2026-05-07 18:02 52.30533 4.79406 -12 ft 29 kts 221°
2026-05-07 18:02 52.30384 4.79193 -12 ft 29 kts 220°
2026-05-07 18:02 52.30245 4.78992 -12 ft 25 kts 220°
2026-05-07 18:03 52.30115 4.78807 -12 ft 22 kts 220°
2026-05-07 18:03 52.30040 4.78658 -12 ft 14 kts 272°
2026-05-07 18:03 52.30067 4.78580 -12 ft 0 kts 309°
2026-05-07 18:04 52.30068 4.78578 -12 ft 2 kts 309°
2026-05-07 18:04 52.30083 4.78548 -10 ft 4 kts 310°
2026-05-07 18:04 52.30137 4.78494 -11 ft 10 kts 26°
2026-05-07 18:05 52.30147 4.78507 -11 ft 0 kts 41°
2026-05-07 18:07 52.30161 4.78527 -11 ft 17 kts 42°
2026-05-07 18:07 52.30546 4.79087 -12 ft 131 kts 41°
2026-05-07 18:08 52.31341 4.80246 749 ft 163 kts 42°
2026-05-07 18:08 52.32253 4.81624 1572 ft 199 kts 43°
2026-05-07 18:08 52.33360 4.83327 2274 ft 235 kts 44°
2026-05-07 18:08 52.34622 4.85259 2963 ft 264 kts 43°
2026-05-07 18:09 52.36075 4.87478 3036 ft 306 kts 43°
2026-05-07 18:09 52.37672 4.89921 3369 ft 323 kts 43°
2026-05-07 18:09 52.39310 4.92451 4097 ft 325 kts 43°
2026-05-07 18:09 52.40834 4.94792 4829 ft 276 kts 43°
2026-05-07 18:10 52.42159 4.96814 5522 ft 249 kts 44°
2026-05-07 18:10 52.43136 4.98970 6200 ft 232 kts 71°
2026-05-07 18:10 52.43254 5.01628 6901 ft 248 kts 103°
2026-05-07 18:10 52.42452 5.04254 7619 ft 272 kts 131°
2026-05-07 18:11 52.40890 5.06156 8371 ft 291 kts 153°
2026-05-07 18:11 52.39664 5.07140 8894 ft 301 kts 155°
2026-05-07 18:11 52.37143 5.09411 9948 ft 320 kts 144°
2026-05-07 18:11 52.35596 5.12225 10658 ft 350 kts 122°
2026-05-07 18:12 52.34683 5.16043 11395 ft 373 kts 105°
2026-05-07 18:12 52.34133 5.20261 12149 ft 392 kts 101°
2026-05-07 18:12 52.33571 5.24709 12932 ft 406 kts 104°
2026-05-07 18:12 52.32763 5.29118 13713 ft 417 kts 110°
2026-05-07 18:13 52.31736 5.33601 14449 ft 410 kts 111°
2026-05-07 18:13 52.30801 5.37939 15170 ft 402 kts 108°
2026-05-07 18:13 52.29999 5.42285 15898 ft 395 kts 107°
2026-05-07 18:13 52.29196 5.46543 16643 ft 390 kts 109°
2026-05-07 18:14 52.28337 5.50704 17403 ft 385 kts 109°
2026-05-07 18:14 52.27486 5.54822 18177 ft 381 kts 109°
2026-05-07 18:14 52.26672 5.58927 18884 ft 377 kts 108°
2026-05-07 18:14 52.25864 5.63015 19405 ft 380 kts 109°
2026-05-07 18:15 52.25037 5.67107 19933 ft 381 kts 109°
2026-05-07 18:15 52.24197 5.71227 20418 ft 384 kts 109°
2026-05-07 18:15 52.23368 5.75327 20893 ft 387 kts 109°
2026-05-07 18:15 52.22524 5.79506 21376 ft 390 kts 109°
2026-05-07 18:16 52.21669 5.83714 21855 ft 393 kts 109°
2026-05-07 18:16 52.20801 5.87965 22323 ft 396 kts 109°
2026-05-07 18:16 52.19930 5.92232 22771 ft 399 kts 109°
2026-05-07 18:16 52.19050 5.96537 23201 ft 402 kts 109°
2026-05-07 18:17 52.18163 6.00867 23624 ft 405 kts 109°
2026-05-07 18:17 52.17266 6.05233 23982 ft 407 kts 109°
2026-05-07 18:17 52.16361 6.09625 24336 ft 410 kts 109°
2026-05-07 18:17 52.15454 6.14022 24689 ft 412 kts 109°
2026-05-07 18:18 52.14538 6.18454 25133 ft 416 kts 109°
2026-05-07 18:18 52.13624 6.22863 26075 ft 417 kts 109°
2026-05-07 18:18 52.12683 6.27391 26825 ft 422 kts 110°
2026-05-07 18:18 52.11738 6.31927 27549 ft 427 kts 110°
2026-05-07 18:19 52.10784 6.36503 28237 ft 432 kts 110°
2026-05-07 18:19 52.09813 6.41142 28881 ft 436 kts 110°
2026-05-07 18:19 52.08830 6.45834 29510 ft 440 kts 110°
2026-05-07 18:19 52.07834 6.50568 30089 ft 444 kts 110°
2026-05-07 18:20 52.06830 6.55338 30579 ft 448 kts 110°
2026-05-07 18:20 52.05818 6.60133 31046 ft 451 kts 110°
2026-05-07 18:20 52.04793 6.64975 31480 ft 454 kts 110°
2026-05-07 18:20 52.03766 6.69817 31875 ft 456 kts 110°
2026-05-07 18:21 52.02724 6.74717 32240 ft 459 kts 110°
2026-05-07 18:21 52.01841 6.79639 32536 ft 462 kts 105°
2026-05-07 18:21 52.01068 6.84698 32820 ft 463 kts 105°
2026-05-07 18:21 52.00274 6.89777 33038 ft 465 kts 105°
2026-05-07 18:22 51.99459 6.94856 33219 ft 466 kts 105°
2026-05-07 18:22 51.97840 7.05066 33465 ft 468 kts 105°
2026-05-07 18:23 51.96098 7.15239 33580 ft 469 kts 108°
2026-05-07 18:23 51.95153 7.20294 33744 ft 466 kts 108°
2026-05-07 18:23 51.94240 7.25281 34159 ft 461 kts 107°
2026-05-07 18:23 51.93323 7.30267 34505 ft 459 kts 108°
2026-05-07 18:24 51.92397 7.35208 34835 ft 458 kts 108°
2026-05-07 18:24 51.91472 7.40131 35150 ft 458 kts 108°
2026-05-07 18:24 51.90548 7.45073 35462 ft 458 kts 108°
2026-05-07 18:24 51.89641 7.49926 35763 ft 458 kts 108°
2026-05-07 18:25 51.88708 7.54878 36065 ft 459 kts 108°
2026-05-07 18:25 51.87776 7.59807 36358 ft 459 kts 108°
2026-05-07 18:25 51.86839 7.64756 36659 ft 460 kts 108°
2026-05-07 18:25 51.86032 7.69770 36929 ft 462 kts 101°
2026-05-07 18:26 51.85742 7.74936 37096 ft 466 kts 91°
2026-05-07 18:26 51.85901 7.85380 37092 ft 474 kts 89°
2026-05-07 18:27 51.86019 7.96136 37102 ft 477 kts 89°
2026-05-07 18:27 51.86157 8.06856 37106 ft 477 kts 89°
2026-05-07 18:28 51.86250 8.15790 37102 ft 477 kts 90°
2026-05-07 18:28 51.86361 8.26502 37106 ft 476 kts 89°
2026-05-07 18:29 51.86459 8.37234 37104 ft 476 kts 90°
2026-05-07 18:29 51.86504 8.42594 36980 ft 478 kts 90°
2026-05-07 18:29 51.86543 8.48000 36443 ft 482 kts 90°
2026-05-07 18:29 51.86605 8.55130 35750 ft 469 kts 89°
2026-05-07 18:30 51.86632 8.58653 35401 ft 461 kts 89°
2026-05-07 18:30 51.86665 8.63801 34896 ft 454 kts 89°
2026-05-07 18:30 51.86694 8.68804 34405 ft 448 kts 89°
2026-05-07 18:30 51.86724 8.73804 33878 ft 444 kts 89°
2026-05-07 18:31 51.86754 8.78864 33292 ft 455 kts 89°
2026-05-07 18:31 51.86780 8.84019 32729 ft 459 kts 89°
2026-05-07 18:31 51.86803 8.89165 32178 ft 457 kts 89°
2026-05-07 18:31 51.86824 8.94255 31645 ft 456 kts 89°
2026-05-07 18:32 51.86844 8.99403 31114 ft 456 kts 89°
2026-05-07 18:32 51.86860 9.04517 30596 ft 455 kts 89°
2026-05-07 18:32 51.86875 9.09632 30066 ft 455 kts 89°
2026-05-07 18:32 51.86888 9.14736 29470 ft 454 kts 89°
2026-05-07 18:33 51.86898 9.19856 28880 ft 454 kts 90°
2026-05-07 18:33 51.86906 9.24936 28302 ft 453 kts 90°
2026-05-07 18:33 51.86912 9.29979 27736 ft 453 kts 90°
2026-05-07 18:33 51.86916 9.35083 27185 ft 452 kts 90°
2026-05-07 18:34 51.86917 9.40157 26634 ft 451 kts 90°
2026-05-07 18:34 51.86917 9.45221 26107 ft 450 kts 90°
2026-05-07 18:34 51.86914 9.50199 25586 ft 431 kts 90°
2026-05-07 18:34 51.86909 9.54949 25123 ft 412 kts 90°
2026-05-07 18:35 51.86903 9.59442 25095 ft 389 kts 90°
2026-05-07 18:35 51.86895 9.63736 25089 ft 382 kts 90°
2026-05-07 18:35 51.86886 9.68103 25093 ft 394 kts 90°
2026-05-07 18:35 51.86875 9.72589 25092 ft 404 kts 90°
2026-05-07 18:36 51.86862 9.77190 25093 ft 412 kts 90°
2026-05-07 18:36 51.86704 9.81857 25093 ft 418 kts 98°
2026-05-07 18:36 51.85997 9.86464 24882 ft 429 kts 109°
2026-05-07 18:36 51.84830 9.90920 24384 ft 443 kts 113°
2026-05-07 18:37 51.83998 9.95768 23856 ft 455 kts 100°
2026-05-07 18:37 51.83595 10.00883 23287 ft 464 kts 96°
2026-05-07 18:37 51.83291 10.06123 22686 ft 466 kts 96°
2026-05-07 18:37 51.82883 10.11108 22113 ft 433 kts 101°
2026-05-07 18:38 51.82272 10.15744 21526 ft 408 kts 103°
2026-05-07 18:38 51.81617 10.20098 20946 ft 390 kts 104°
2026-05-07 18:38 51.80998 10.24270 20382 ft 377 kts 103°
2026-05-07 18:38 51.80430 10.28349 19827 ft 368 kts 103°
2026-05-07 18:39 51.79871 10.32353 19283 ft 364 kts 103°
2026-05-07 18:39 51.79298 10.36320 18744 ft 361 kts 103°
2026-05-07 18:39 51.78728 10.40240 18201 ft 359 kts 103°
2026-05-07 18:39 51.78183 10.44041 18499 ft 331 kts 103°
2026-05-07 18:40 51.77673 10.47582 18976 ft 318 kts 103°
2026-05-07 18:40 51.77174 10.51028 19088 ft 323 kts 103°
2026-05-07 18:40 51.76653 10.54607 19093 ft 334 kts 103°
2026-05-07 18:40 51.76107 10.58368 19089 ft 361 kts 103°
2026-05-07 18:41 51.75497 10.62551 19105 ft 404 kts 103°
2026-05-07 18:41 51.74860 10.66908 19108 ft 388 kts 103°
2026-05-07 18:41 51.74255 10.71040 19107 ft 370 kts 103°
2026-05-07 18:41 51.73674 10.74989 19104 ft 356 kts 103°
2026-05-07 18:42 51.73100 10.78859 18737 ft 356 kts 103°
2026-05-07 18:42 51.72518 10.82780 18158 ft 361 kts 104°
2026-05-07 18:42 51.71690 10.86612 17534 ft 364 kts 112°
2026-05-07 18:42 51.70763 10.90352 16939 ft 362 kts 111°
2026-05-07 18:43 51.69859 10.94114 16347 ft 358 kts 111°
2026-05-07 18:43 51.68968 10.97824 15762 ft 351 kts 111°
2026-05-07 18:43 51.68085 11.01443 15192 ft 345 kts 111°
2026-05-07 18:43 51.67206 11.05024 14628 ft 340 kts 111°
2026-05-07 18:44 51.66341 11.08522 14080 ft 332 kts 111°
2026-05-07 18:44 51.65491 11.11919 13481 ft 323 kts 111°
2026-05-07 18:44 51.64656 11.15226 12878 ft 315 kts 111°
2026-05-07 18:44 51.63853 11.18476 12265 ft 309 kts 110°
2026-05-07 18:45 51.63079 11.21650 11682 ft 305 kts 110°
2026-05-07 18:45 51.62307 11.24825 11101 ft 301 kts 110°
2026-05-07 18:45 51.61546 11.27946 10532 ft 298 kts 110°
2026-05-07 18:45 51.60798 11.31011 10109 ft 290 kts 110°
2026-05-07 18:46 51.60079 11.33943 10096 ft 270 kts 110°
2026-05-07 18:46 51.59409 11.36666 10091 ft 255 kts 110°
2026-05-07 18:46 51.58801 11.39194 10086 ft 241 kts 105°
2026-05-07 18:46 51.58495 11.41834 10085 ft 243 kts 95°
2026-05-07 18:47 51.58305 11.44664 10090 ft 281 kts 94°
2026-05-07 18:47 51.58108 11.47848 10110 ft 287 kts 94°
2026-05-07 18:47 51.57914 11.51051 10113 ft 289 kts 94°
2026-05-07 18:47 51.57720 11.54254 10109 ft 287 kts 94°
2026-05-07 18:48 51.57527 11.57417 10108 ft 280 kts 94°
2026-05-07 18:48 51.57338 11.60493 10108 ft 275 kts 94°
2026-05-07 18:48 51.57146 11.63559 9885 ft 279 kts 94°
2026-05-07 18:48 51.56945 11.66757 9287 ft 294 kts 94°
2026-05-07 18:49 51.56743 11.70035 8730 ft 304 kts 94°
2026-05-07 18:49 51.56536 11.73453 8167 ft 311 kts 94°
2026-05-07 18:49 51.56326 11.76923 7622 ft 313 kts 94°
2026-05-07 18:49 51.56222 11.78667 7347 ft 309 kts 94°
2026-05-07 18:50 51.55731 11.81977 6795 ft 302 kts 114°
2026-05-07 18:50 51.54734 11.84222 6310 ft 290 kts 135°
2026-05-07 18:50 51.53056 11.85835 5721 ft 279 kts 161°
2026-05-07 18:50 51.51167 11.86076 5139 ft 271 kts 188°
2026-05-07 18:51 51.49442 11.84999 4552 ft 264 kts 210°
2026-05-07 18:51 51.47922 11.83438 3977 ft 257 kts 213°
2026-05-07 18:51 51.46405 11.81971 3397 ft 252 kts 200°
2026-05-07 18:51 51.44712 11.81712 3006 ft 238 kts 167°
2026-05-07 18:52 51.43367 11.82837 2997 ft 211 kts 133°
2026-05-07 18:52 51.42617 11.84688 2998 ft 190 kts 115°
2026-05-07 18:52 51.42049 11.86513 2998 ft 183 kts 114°
2026-05-07 18:52 51.41677 11.88672 3000 ft 211 kts 94°
2026-05-07 18:53 51.41696 11.91044 3010 ft 215 kts 86°
2026-05-07 18:53 51.41802 11.93466 3018 ft 220 kts 84°
2026-05-07 18:53 51.41924 11.95894 3017 ft 216 kts 85°
2026-05-07 18:53 51.42027 11.98270 3014 ft 210 kts 84°
2026-05-07 18:54 51.42139 12.00474 3005 ft 185 kts 84°
2026-05-07 18:54 51.42225 12.02462 2848 ft 178 kts 84°
2026-05-07 18:54 51.42314 12.04389 2617 ft 170 kts 84°
2026-05-07 18:54 51.42408 12.06276 2373 ft 165 kts 84°
2026-05-07 18:55 51.42492 12.08075 2147 ft 163 kts 84°
2026-05-07 18:55 51.42576 12.09866 1931 ft 153 kts 84°
2026-05-07 18:55 51.42649 12.11484 1748 ft 139 kts 83°
2026-05-07 18:55 51.42719 12.12988 1551 ft 132 kts 83°
2026-05-07 18:56 51.42787 12.14436 1361 ft 128 kts 83°
2026-05-07 18:56 51.42852 12.15834 1177 ft 125 kts 83°
2026-05-07 18:56 51.42917 12.17219 1003 ft 126 kts 83°
2026-05-07 18:56 51.42984 12.18631 834 ft 130 kts 83°
2026-05-07 18:57 51.43053 12.20103 656 ft 132 kts 83°
2026-05-07 18:57 51.43113 12.21557 482 ft 132 kts 83°
2026-05-07 18:57 51.43186 12.22848 427 ft 92 kts 85°
2026-05-07 18:57 51.43221 12.23606 430 ft 59 kts 86°
2026-05-07 18:58 51.43241 12.24100 427 ft 26 kts 98°
2026-05-07 18:58 51.43139 12.24177 428 ft 17 kts 175°
2026-05-07 18:58 51.43038 12.24188 428 ft 14 kts 177°
2026-05-07 18:58 51.42951 12.24228 424 ft 12 kts 117°
2026-05-07 18:59 51.42944 12.24355 428 ft 12 kts 89°
2026-05-07 18:59 51.42951 12.24498 428 ft 14 kts 83°
2026-05-07 18:59 51.42958 12.24655 428 ft 14 kts 85°
2026-05-07 18:59 51.42965 12.24820 428 ft 16 kts 85°
2026-05-07 19:00 51.42972 12.24966 428 ft 6 kts 85°
2026-05-07 19:00 51.42964 12.25047 428 ft 9 kts 123°
2026-05-07 19:00 51.42923 12.25081 440 ft 0 kts 168°
2026-05-07 19:00 51.42839 12.25048 430 ft 20 kts 197°
2026-05-07 19:01 51.42698 12.24996 432 ft 21 kts 193°
2026-05-07 19:01 51.42557 12.24941 441 ft 19 kts 191°
2026-05-07 19:01 51.42449 12.24899 453 ft 13 kts 193°
2026-05-07 19:01 51.42363 12.24867 457 ft 13 kts 193°
2026-05-07 19:02 51.42261 12.24828 455 ft 18 kts 193°
2026-05-07 19:02 51.42127 12.24775 453 ft 21 kts 194°
2026-05-07 19:02 51.41977 12.24719 454 ft 22 kts 193°
2026-05-07 19:02 51.41814 12.24657 441 ft 28 kts 194°
2026-05-07 19:03 51.41658 12.24552 429 ft 15 kts 255°
2026-05-07 19:03 51.41649 12.24379 422 ft 17 kts 266°
2026-05-07 19:03 51.41639 12.24171 429 ft 20 kts 265°
2026-05-07 19:03 51.41628 12.23933 429 ft 23 kts 264°
2026-05-07 19:04 51.41615 12.23663 429 ft 25 kts 266°
2026-05-07 19:04 51.41601 12.23367 429 ft 28 kts 265°
2026-05-07 19:04 51.41629 12.23061 427 ft 29 kts 284°
2026-05-07 19:04 51.41681 12.22757 425 ft 27 kts 287°
2026-05-07 19:05 51.41724 12.22508 422 ft 20 kts 285°
2026-05-07 19:05 51.41759 12.22384 425 ft 10 kts 342°
2026-05-07 19:05 51.41816 12.22401 429 ft 8 kts 15°
2026-05-07 19:05 51.41845 12.22414 429 ft 0 kts 15°